/EX
1
0
SB KEPS @ AMSAT $ORB20016.N
2Line Orbital Elements 20016.AMSAT
HR AMSAT ORBITAL ELEMENTS FOR AMATEUR SATELLITES IN NASA FORMAT
FROM WA5QGD FORT WORTH,TX January 16, 2020
BID: ORB20016.N
DECODE 2-LINE ELSETS WITH THE FOLLOWING KEY:
1 AAAAAU 00 0 0 BBBBB.BBBBBBBB .CCCCCCCC 00000-0 00000-0 0 DDDZ
2 AAAAA EEE.EEEE FFF.FFFF GGGGGGG HHH.HHHH III.IIII JJ.JJJJJJJJKKKKKZ
KEY: A-CATALOGNUM B-EPOCHTIME C-DECAY D-ELSETNUM E-INCLINATION F-RAAN
G-ECCENTRICITY H-ARGPERIGEE I-MNANOM J-MNMOTION K-ORBITNUM Z-CHECKSUM
TO ALL RADIO AMATEURS BT
AO-07
1 07530U 74089B 20016.16908902 -.00000022 00000-0 14595-3 0 9999
2 07530 101.7781 346.9052 0012031 300.4647 70.4147 12.53641641 67023
UO-11
1 14781U 84021B 20016.81750709 .00000056 00000-0 12993-4 0 9991
2 14781 97.5976 36.3249 0008151 353.3868 6.7238 14.83135377930206
LO-19
1 20442U 90005G 20016.10449875 -.00000001 00000-0 16041-4 0 9991
2 20442 098.6747 322.9927 0010734 244.6919 115.3153 14.32942748566593
HUBBLE
1 20580U 90037B 20016.81437404 .00000346 00000-0 10036-4 0 9991
2 20580 28.4686 249.1890 0002575 246.4813 190.7759 15.09326331432966
MET-2/21
1 22782U 93055A 20016.22794144 .00000034 00000-0 17048-4 0 9996
2 22782 082.5496 355.1881 0021299 307.3306 063.7826 13.83822659331852
AO-27
1 22825U 93061C 20016.42789719 -.00000013 00000-0 12998-4 0 9992
2 22825 98.9185 15.0631 0009444 101.3024 258.9219 14.30075734372214
IO-26
1 22826U 93061D 20016.79987209 -.00000004 00000-0 16328-4 0 9998
2 22826 98.9126 15.4092 0009988 90.0144 270.2182 14.30410409372471
FO-29
1 24278U 96046B 20016.25268819 -.00000043 00000-0 -95426-5 0 9998
2 24278 098.5653 146.2936 0351165 051.7796 311.4413 13.53095094156163
NOAA-15
1 25338U 98030A 20016.81871498 .00000001 00000-0 19058-4 0 9994
2 25338 98.7317 42.5314 0010184 352.2886 7.8135 14.25947557127479
GO-32
1 25397U 98043D 20016.09401947 -.00000008 00000-0 15648-4 0 9990
2 25397 98.7130 318.8943 0002086 118.4516 241.6873 14.23677711117957
ISS
1 25544U 98067A 20016.92700830 .00001003 00000-0 25928-4 0 9992
2 25544 51.6456 21.8462 0004979 138.2273 302.8504 15.49569255208415
NO-44
1 26931U 01043C 20016.68911319 -.00000051 00000-0 12229-4 0 9993
2 26931 67.0498 176.6163 0006698 262.9775 97.0564 14.30564599955291
SO-50
1 27607U 02058C 20016.27176007 -.00000024 00000-0 17434-4 0 9996
2 27607 064.5554 122.7102 0066439 214.3744 145.3052 14.75602807918122
CO-55
1 27844U 03031E 20016.48724197 .00000025 00000-0 31010-4 0 9999
2 27844 98.6835 26.5205 0010610 134.2997 225.9053 14.22216047858397
CO-57
1 27848U 03031J 20016.75110445 .00000018 00000-0 28020-4 0 9997
2 27848 98.6907 27.3198 0010346 144.6884 215.4981 14.21805985858272
RS-22
1 27939U 03042A 20016.85929128 .00000028 00000-0 13665-4 0 9997
2 27939 98.0675 153.9320 0014380 115.0300 245.2401 14.66830357871643
NOAA-18
1 28654U 05018A 20016.22875599 .00000065 00000-0 59961-4 0 9990
2 28654 099.0679 071.0598 0013418 304.4406 055.5497 14.12481890755285
CO-58
1 28895U 05043F 20016.83793226 .00000080 00000-0 24250-4 0 9998
2 28895 97.9856 157.6930 0017611 45.7884 314.4762 14.63729780758511
Falconsat-3
1 30776U 07006E 20015.52481835 .00002191 00000-0 60384-4 0 9998
2 30776 35.4332 184.2981 0003205 240.0112 120.0297 15.37066013713136
CO-65
1 32785U 08021C 20016.66147901 .00000160 00000-0 22911-4 0 9995
2 32785 97.5615 11.5116 0011585 281.6577 78.3341 14.88404241635210
AAUSAT2
1 32788U 08021F 20016.24586945 .00000694 00000-0 68516-4 0 9990
2 32788 97.4923 27.5660 0011051 203.0258 157.0469 14.94918335636529
DO-64
1 32789U 08021G 20016.40855810 .00001232 00000-0 85260-4 0 9993
2 32789 97.4393 64.4180 0013576 118.4342 241.8256 15.07390839638857
CO-66
1 32791U 08021J 20016.65644456 .00000183 00000-0 23840-4 0 9995
2 32791 97.5338 17.6316 0011857 249.6470 110.3475 14.90953318635690
RS-30
1 32953U 08025A 20016.79996844 .00000037 00000-0 19437-3 0 9999
2 32953 82.5035 12.8475 0020032 29.8989 330.3229 12.43093809528664
PRISM
1 33493U 09002B 20016.04933271 -.00000048 00000-0 13704-5 0 9994
2 33493 98.1337 310.1193 0014204 199.0031 161.0661 14.96877818596760
NOAA-19
1 33591U 09005A 20016.85998553 .00000044 00000-0 49454-4 0 9994
2 33591 99.1928 18.2555 0014537 140.7587 219.4641 14.12391978563858
TISAT-1
1 36799U 10035E 20016.72586806 .00000395 00000-0 45748-4 0 9993
2 36799 98.1768 181.2787 0013460 109.3436 250.9237 14.91249130516362
JUGNU
1 37839U 11058B 20016.02391072 .00000314 00000-0 25629-4 0 9994
2 37839 19.9606 133.2124 0018901 136.3992 19.4870 14.12669255427172
SRMSAT
1 37841U 11058D 20016.64138134 .00000288 00000-0 12987-4 0 9996
2 37841 19.9702 190.6346 0011914 5.3306 57.9744 14.10647882426655
AO-71
1 37854U 11061E 20016.00691916 .00000354 00000-0 26017-4 0 9999
2 37854 101.7138 028.0556 0159415 158.0017 202.8140 15.06921716448363
HRBE
1 37855U 11061F 20016.25121597 .00000568 00000-0 36196-4 0 9996
2 37855 101.7268 025.6509 0172110 169.4899 190.9985 15.05936254448142
ALMASAT-1
1 38078U 12006B 20016.51421609 .00073959 60361-5 23030-3 0 9997
2 38078 69.4220 12.8102 0101760 287.7769 214.1846 15.83407661430763
HORYU-2
1 38340U 12025D 20016.11939308 .00000094 00000-0 21651-4 0 9993
2 38340 098.3037 065.7556 0011887 164.8744 195.2822 14.75798863401937
RS-40
1 38735U 12041C 20016.30697074 .00000007 00000-0 -21202-4 0 9998
2 38735 82.4768 96.1629 0018010 133.4722 226.7889 12.42579987338839
BEESAT-3
1 39135U 13015F 20016.59930422 .00000782 00000-0 47538-4 0 9992
2 39135 64.8666 74.9672 0045132 270.4329 89.1625 15.17859680372403
BEESAT-2
1 39136U 13015G 20016.18997583 .00000578 00000-0 38650-4 0 9997
2 39136 64.8715 80.7578 0030996 279.4717 80.2906 15.17278586372258
ZACUBE-1
1 39417U 13066B 20016.83189719 .00000164 00000-0 26860-4 0 9992
2 39417 97.5614 23.3881 0060185 59.1945 301.5173 14.81207329332449
TRITON-1
1 39427U 13066M 20016.18046721 .00000108 00000-0 25355-4 0 9992
2 39427 97.7047 345.8212 0112957 207.8635 151.6493 14.67930162329363
GOMX-1
1 39430U 13066Q 20016.83900020 .00000161 00000-0 38536-4 0 9993
2 39430 97.7748 324.7307 0150112 305.8768 52.8576 14.59339584327541
LO-74
1 39440U 13066AA 20016.41321756 .00000150 00000-0 27636-4 0 9998
2 39440 97.6167 7.5098 0081457 116.7425 244.2150 14.75943574331204
AO-73
1 39444U 13066AE 20016.10647136 .00000206 00000-0 31541-4 0 9993
2 39444 97.5574 24.8351 0059223 54.6133 306.0593 14.82045107331240
SPROUT
1 39770U 14029E 20016.53361200 .00000668 00000-0 79595-4 0 9990
2 39770 97.8917 123.5858 0010191 108.9754 251.2619 14.87578348306322
DUCHIFAT-1
1 40021U 14033M 20016.25267692 .00000204 00000-0 26556-4 0 9990
2 40021 097.9352 306.6429 0014299 073.9535 286.3257 14.90787476303069
NANOSATCBR1
1 40024U 14033Q 20016.52682265 .00000273 00000-0 34193-4 0 9992
2 40024 97.9222 303.7686 0013613 76.9307 283.3429 14.89975953302985
EO-79
1 40025U 14033R 20016.71840802 .00000200 00000-0 27253-4 0 9996
2 40025 97.9122 301.0916 0013861 82.4691 277.8100 14.89054626302872
DTUSAT-2
1 40030U 14033W 20016.23535787 .00000170 00000-0 24291-4 0 9997
2 40030 097.9019 298.3907 0013332 080.2792 279.9929 14.88638911302216
EO-80
1 40032U 14033Y 20016.51770592 .00000202 00000-0 27741-4 0 9994
2 40032 97.9026 298.6737 0013257 80.0806 280.1906 14.88584853302753
ANTELSAT
1 40034U 14033AA 20016.34699671 .00000145 00000-0 28690-4 0 9995
2 40034 97.7322 239.1912 0059628 132.3774 228.2505 14.74191143299859
